Weather History for Glencoe, MN

Change the Weather History Date:

Monday, March 31, 2014

  Actual Average (KHCD) Record (KHCD)
Temperature  
Mean Temperature 46 °F -  
Max Temperature 61 °F 49 °F 76 °F (1968)
Min Temperature 32 °F 27 °F -2 °F (1969)
Degree Days  
Heating Degree Days 19    
Moisture  
Dew Point 39 °F    
Average Humidity 73    
Maximum Humidity 90    
Minimum Humidity 61    
Precipitation  
Precipitation 0.12 in - - ()
Sea Level Pressure  
Sea Level Pressure 29.49 in    
Wind  
Wind Speed 11 mph (SE)    
Max Wind Speed 24 mph    
Max Gust Speed 31 mph    
Visibility 10 miles    
Events Rain , Thunderstorm    
Averages and records for this station are not official NWS values.
T = Trace of Precipitation, MM = Missing Value Source: NWS Daily Summary

Daily Weather History Graph

Daily Weather History Graph

Search for Another Location

Airport:

Trip Planner

Search our weather history database for the weather conditions in past years. The results will help you decide how hot, cold, wet, or windy it might be!

Date:

Astronomy

Mar. 31, 2014 Rise Set
Actual Time 6:58 AM CDT 7:42 PM CDT
Civil Twilight 6:29 AM CDT 8:12 PM CDT
Nautical Twilight 5:54 AM CDT 8:47 PM CDT
Astronomical Twilight 5:18 AM CDT 9:24 PM CDT
Moon 7:20 AM CDT (3/31) 9:06 PM CDT (3/31)
Length of Visible Light 13h 42m
Length of Day
12h 43m
New Moon, 1% of the Moon is Illuminated
Mar 31
New Moon
Apr 7
First Quarter
Apr 15
Full
Apr 22
Last Quarter
Apr 29
New

Hourly Weather History & Observations

Time (CDT) Temp. Windchill Dew Point Humidity Pressure Visibility Wind Dir Wind Speed Gust Speed Precip Events Conditions
12:12 AM 44.1 °F 40.8 °F 36.9 °F 76% 29.70 in 10.0 mi East 5.8 mph - N/A   Clear
12:32 AM 43.3 °F 39.9 °F 36.3 °F 76% 29.70 in 10.0 mi East 5.8 mph - N/A   Clear
12:52 AM 43.5 °F 40.1 °F 36.3 °F 76% 29.70 in 10.0 mi East 5.8 mph - N/A   Clear
1:12 AM 43.0 °F 38.2 °F 35.6 °F 75% 29.69 in 10.0 mi East 8.1 mph - N/A   Clear
1:33 AM 42.4 °F 38.1 °F 35.2 °F 76% 29.69 in 10.0 mi East 6.9 mph - N/A   Clear
1:52 AM 43.7 °F 39.1 °F 35.4 °F 73% 29.69 in 10.0 mi East 8.1 mph - N/A   Clear
2:12 AM 42.6 °F 37.2 °F 35.1 °F 75% 29.68 in 10.0 mi ESE 9.2 mph - N/A   Clear
2:33 AM 47.3 °F - 34.7 °F 62% 29.67 in 10.0 mi ESE 9.2 mph - N/A   Clear
2:52 AM 45.9 °F 41.2 °F 34.5 °F 65% 29.67 in 10.0 mi ESE 9.2 mph - N/A   Clear
3:11 AM 43.9 °F 39.3 °F 34.3 °F 69% 29.66 in 10.0 mi East 8.1 mph - N/A   Clear
3:32 AM 43.2 °F 38.4 °F 34.3 °F 71% 29.65 in 10.0 mi ESE 8.1 mph - N/A   Clear
3:52 AM 45.7 °F 41.0 °F 34.2 °F 64% 29.65 in 10.0 mi ESE 9.2 mph - N/A   Clear
4:12 AM 45.9 °F 41.2 °F 34.2 °F 64% 29.64 in 10.0 mi ESE 9.2 mph - N/A   Clear
4:32 AM 45.7 °F 41.0 °F 34.2 °F 64% 29.64 in 10.0 mi ESE 9.2 mph - N/A   Clear
4:51 AM 44.1 °F 39.5 °F 34.3 °F 69% 29.63 in 10.0 mi ESE 8.1 mph - N/A   Clear
5:13 AM 43.5 °F 38.9 °F 34.2 °F 70% 29.62 in 10.0 mi ESE 8.1 mph - N/A   Clear
5:32 AM 41.9 °F 36.9 °F 34.2 °F 74% 29.61 in 10.0 mi ESE 8.1 mph - N/A   Clear
5:52 AM 42.1 °F 36.6 °F 34.7 °F 75% 29.61 in 10.0 mi ESE 9.2 mph - N/A   Clear
6:13 AM 43.7 °F 38.1 °F 34.7 °F 71% 29.60 in 10.0 mi ESE 10.4 mph - N/A   Clear
6:32 AM 45.3 °F 40.1 °F 34.7 °F 66% 29.60 in 10.0 mi ESE 10.4 mph - N/A   Clear
6:52 AM 45.7 °F 40.6 °F 34.7 °F 65% 29.60 in 10.0 mi ESE 10.4 mph - N/A   Scattered Clouds
7:12 AM 46.4 °F 41.1 °F 35.1 °F 65% 29.59 in 10.0 mi SE 11.5 mph 16.1 mph N/A   Mostly Cloudy
7:33 AM 47.1 °F - 35.2 °F 63% 29.59 in 10.0 mi SE 13.8 mph - N/A   Mostly Cloudy
7:53 AM 46.9 °F - 36.5 °F 67% 29.59 in 10.0 mi SE 10.4 mph 19.6 mph N/A   Light Drizzle
8:13 AM 46.9 °F - 38.8 °F 73% 29.58 in 10.0 mi SSE 17.3 mph 20.7 mph N/A   Drizzle
8:32 AM 48.2 °F - 39.4 °F 72% 29.58 in 10.0 mi SSE 15.0 mph 24.2 mph N/A   Overcast
8:53 AM 48.2 °F - 39.4 °F 72% 29.58 in 10.0 mi SSE 15.0 mph 20.7 mph N/A Rain Rain
9:13 AM 47.7 °F - 40.6 °F 77% 29.55 in 7.0 mi SE 19.6 mph 25.3 mph N/A Rain Light Rain
9:33 AM 47.7 °F - 41.9 °F 80% 29.54 in 10.0 mi SE 15.0 mph 21.9 mph N/A   Overcast
9:53 AM 48.2 °F - 42.3 °F 80% 29.54 in 10.0 mi SE 17.3 mph - N/A   Overcast
10:12 AM 48.2 °F - 42.8 °F 82% 29.55 in 10.0 mi SE 17.3 mph - N/A   Overcast
10:33 AM 49.1 °F - 42.8 °F 79% 29.54 in 10.0 mi SE 15.0 mph 21.9 mph N/A   Overcast
10:53 AM 49.1 °F - 42.6 °F 78% 29.54 in 10.0 mi ESE 13.8 mph - N/A   Overcast
11:12 AM 48.7 °F - 42.6 °F 79% 29.54 in 10.0 mi ESE 12.7 mph - N/A   Overcast
11:33 AM 48.6 °F - 42.3 °F 79% 29.54 in 10.0 mi ESE 13.8 mph 19.6 mph N/A   Overcast
11:53 AM 48.4 °F - 41.7 °F 78% 29.52 in 10.0 mi ESE 13.8 mph 19.6 mph N/A   Overcast
12:12 PM 47.8 °F - 41.2 °F 78% 29.51 in 10.0 mi ESE 10.4 mph - N/A   Overcast
12:33 PM 49.1 °F - 42.1 °F 77% 29.49 in 10.0 mi East 12.7 mph - N/A   Overcast
12:53 PM 51.3 °F - 43.7 °F 75% 29.48 in 10.0 mi East 17.3 mph - N/A   Overcast
1:12 PM 54.3 °F - 44.2 °F 69% 29.47 in 10.0 mi ESE 19.6 mph 25.3 mph N/A   Mostly Cloudy
1:33 PM 56.5 °F - 45.3 °F 66% 29.45 in 10.0 mi ESE 21.9 mph 26.5 mph N/A   Clear
1:52 PM 57.4 °F - 45.7 °F 65% 29.44 in 10.0 mi SE 19.6 mph 29.9 mph N/A   Scattered Clouds
2:13 PM 55.8 °F - 45.5 °F 68% 29.44 in 10.0 mi ESE 19.6 mph 25.3 mph N/A   Overcast
2:33 PM 55.4 °F - 46.2 °F 71% 29.42 in 10.0 mi ESE 16.1 mph - N/A   Overcast
2:52 PM 55.6 °F - 46.4 °F 71% 29.41 in 10.0 mi ESE 17.3 mph - N/A   Overcast
3:13 PM 55.9 °F - 46.6 °F 71% 29.39 in 10.0 mi ESE 16.1 mph 20.7 mph N/A   Overcast
3:33 PM 55.9 °F - 46.8 °F 71% 29.38 in 10.0 mi ESE 17.3 mph - N/A   Overcast
3:52 PM 56.5 °F - 47.3 °F 71% 29.36 in 10.0 mi East 19.6 mph - N/A   Overcast
4:13 PM 59.0 °F - 48.2 °F 67% 29.34 in 10.0 mi ESE 19.6 mph 24.2 mph N/A   Mostly Cloudy
4:33 PM 59.7 °F - 48.7 °F 67% 29.33 in 10.0 mi ESE 17.3 mph 26.5 mph N/A   Scattered Clouds
4:52 PM 60.8 °F - 49.1 °F 65% 29.32 in 10.0 mi ESE 20.7 mph 25.3 mph N/A   Scattered Clouds
5:13 PM 59.2 °F - 48.7 °F 68% 29.32 in 10.0 mi ESE 21.9 mph 26.5 mph N/A Thunderstorm Scattered Clouds
5:32 PM 58.3 °F - 48.6 °F 70% 29.32 in 10.0 mi ESE 12.7 mph 24.2 mph N/A   Mostly Cloudy
5:53 PM 60.8 °F - 49.5 °F 66% 29.32 in 10.0 mi ESE 12.7 mph - N/A   Scattered Clouds
6:13 PM 55.8 °F - 49.6 °F 80% 29.30 in 2.5 mi East 12.7 mph - 0.12 in Rain , Thunderstorm Light Thunderstorms and Rain
6:33 PM 56.3 °F - 50.0 °F 79% 29.32 in 10.0 mi SSW 8.1 mph - 0.12 in   Overcast
6:53 PM 58.6 °F - 49.6 °F 72% 29.32 in 10.0 mi South 6.9 mph - 0.12 in   Mostly Cloudy
7:13 PM 56.3 °F - 43.2 °F 61% 29.33 in 10.0 mi South 10.4 mph - N/A   Scattered Clouds
7:32 PM 52.2 °F - 39.6 °F 62% 29.33 in 10.0 mi South 13.8 mph 19.6 mph N/A   Scattered Clouds
7:53 PM 49.1 °F - 38.3 °F 66% 29.32 in 10.0 mi SSE 12.7 mph 19.6 mph N/A   Scattered Clouds
8:11 PM 45.7 °F 38.3 °F 36.3 °F 70% 29.33 in 10.0 mi South 18.4 mph 24.2 mph N/A   Scattered Clouds
8:32 PM 42.8 °F 34.0 °F 34.5 °F 73% 29.34 in 10.0 mi South 20.7 mph 31.1 mph N/A   Clear
8:53 PM 39.2 °F 30.8 °F 32.0 °F 75% 29.35 in 10.0 mi South 15.0 mph 28.8 mph N/A   Scattered Clouds
9:11 PM 37.0 °F 25.6 °F 30.4 °F 77% 29.36 in 10.0 mi South 24.2 mph 31.1 mph N/A   Mostly Cloudy
9:31 PM 35.1 °F 24.8 °F 29.7 °F 81% 29.36 in 10.0 mi South 17.3 mph 27.6 mph N/A   Overcast
9:53 PM 33.3 °F 22.8 °F 28.9 °F 84% 29.36 in 10.0 mi South 16.1 mph 26.5 mph N/A   Overcast
10:12 PM 32.4 °F 23.0 °F 28.0 °F 84% 29.36 in 10.0 mi SSE 12.7 mph 20.7 mph N/A   Overcast
10:32 PM 32.4 °F 24.0 °F 28.0 °F 84% 29.35 in 10.0 mi SSE 10.4 mph 19.6 mph N/A   Overcast
10:52 PM 32.9 °F 25.3 °F 28.8 °F 85% 29.35 in 10.0 mi SSE 9.2 mph - N/A   Overcast
11:12 PM 34.0 °F 25.5 °F 30.4 °F 87% 29.36 in 7.0 mi SSW 11.5 mph 16.1 mph N/A   Overcast
11:31 PM 33.1 °F 26.9 °F 30.2 °F 89% 29.36 in 3.0 mi South 6.9 mph - N/A   Overcast
11:51 PM 32.4 °F 24.6 °F 29.7 °F 90% 29.37 in 2.5 mi South 9.2 mph - N/A   Overcast